RH
82 72 71 81 72 71 67 49 93 86 70 88 85 94 98 98 96 92 80 66 51 53 49 41 32 26 34 59 67 84 94 99 84 90 94 96 97 98
78 74 76 78 79 100 82 58 43 46 97 99 96 98 97 95 93 90 76 63 51 46 39 28 24 60 67 69 85 93 95 84 97 98 99 100 97 92
60 80 84 86 95 98 96 77 45 30 42 63 81 67 56 43 48 60 48 43 39 37 27 31 73 88 75 82 84 100 97 91 99 100 95 96 98 64
30 28 32 43 66 90 92 88 70 60 52 38 34 30 32 52 67 53 42 31 30 25 83 83 82 82 99 93 86 95 99 99 99 100 89 81 41 30
33 36 36 31 30 31 33 40 46 46 42 39 39 42 45 46 42 35 82 61 75 93 98 98 93 96 95 98 98 97 98 99 96 98 86 83 57 44
33 25 29 36 38 30 26 26 31 44 46 44 37 33 30 25 45 98 100 100 98 98 95 94 96 91 89 94 96 89 80 80 84 93 81 74 50 37
77 83 68 77 44 28 32 32 34 36 37 30 39 73 77 92 100 99 98 96 91 74 61 50 38 31 32 35 56 59 42 52 54 48 61 59 50 43
16 16 17 18 41 80 76 76 75 76 86 88 96 100 93 94 68 30 23 23 23 24 24 25 23 23 23 23 22 24 25 25 28 30 28 28 27 27
15 17 17 18 18 23 28 22 27 27 42 55 59 28 22 21 22 21 21 20 19 18 19 23 21 22 23 23 23 24 24 24 23 22 21 21 21 21
19 18 17 16 16 17 18 18 19 20 20 20 19 19 20 21 24 27 29 32 34 33 29 30 29 27 28 24 24 24 22 23 24 25 27 29 30 29
27 27 27 27 28 28 28 29 30 31 32 34 35 36 36 31 24 20 19 20 24 29 23 35 36 35 35 35 32 30 29 29 27 25 25 27 29 29
24 25 25 27 27 29 30 30 31 31 29 26 24 21 20 25 44 62 68 74 74 70 49 39 36 29 28 26 29 30 34 36 39 40 41 41 40 40
60 61 60 52 42 33 30 28 28 31 34 35 35 40 44 47 59 76 63 31 19 12 10 10 10 9 9 9 14 13 11 11 10 10 10 9 9 8
75 75 80 96 96 94 88 81 78 80 85 87 89 87 82 68 26 15 13 12 11 10 8 7 8 15 25 39 49 64 62 57 52 52 48 43 38 32
91 82 81 92 96 94 97 100 100 98 90 86 74 31 12 12 13 13 12 10 9 12 24 31 40 51 55 58 61 69 68 72 58 57 59 63 73 84
98 88 83 94 100 97 94 92 94 91 54 20 13 12 16 16 15 12 12 18 22 29 33 38 51 59 65 71 72 78 80 89 91 89 94 91 93 95
96 98 97 98 98 97 93 89 60 26 14 15 17 18 16 14 13 14 28 31 33 46 53 55 61 67 71 74 83 83 89 84 83 89 86 80 75 50
100 100 100 100 99 98 88 52 32 19 18 16 15 16 16 15 17 24 35 45 51 55 56 64 74 76 72 71 71 54 44 30 15 9 11 15 13 13
100 100 99 100 100 85 60 37 26 20 15 15 16 17 18 21 34 40 51 58 64 65 61 67 71 70 49 25 12 8 8 7 9 11 12 15 17 52
99 99 99 98 81 62 45 33 23 14 15 15 17 20 27 40 50 57 65 69 73 78 70 66 66 60 28 10 7 7 8 10 16 17 18 29 72 89
99 99 90 78 65 52 40 28 19 13 16 18 21 25 39 46 59 61 75 75 78 82 80 74 54 35 15 8 8 9 14 27 24 32 39 90 99 89
98 93 84 70 63 53 40 26 12 18 20 21 28 38 44 50 61 55 61 74 75 76 78 65 29 12 8 8 12 15 30 43 52 71 83 100 100 100
96 86 75 73 66 47 24 14 19 32 22 29 39 48 51 52 58 51 47 58 67 72 71 39 11 9 11 15 26 39 57 62 91 99 95 100 100 100
Wind_Speed
44 46 49 52 56 56 57 58 54 45 48 55 64 71 43 45 46 43 45 45 51 51 52 52 54 54 51 54 54 49 44 44 46 46 48 45 41 40
36 41 46 48 50 53 56 57 60 59 54 46 52 57 60 57 50 44 45 47 50 51 52 53 50 51 48 51 50 49 43 41 43 46 45 43 37 25
20 26 31 36 39 43 49 53 53 54 63 67 67 63 61 52 49 47 48 49 50 49 51 46 44 44 50 54 51 47 46 44 47 48 37 31 28 34
16 18 21 26 31 37 40 41 44 45 48 54 59 61 57 49 49 49 48 46 44 46 45 45 45 44 44 49 51 53 55 53 49 43 39 37 40 42
11 14 16 19 22 25 29 33 35 37 38 40 43 45 47 50 49 46 44 42 41 40 39 42 49 53 54 60 53 51 42 38 42 38 39 41 45 46
11 11 12 15 18 21 21 23 26 30 33 38 41 39 41 39 37 30 33 30 33 30 31 35 36 37 37 35 35 35 39 43 44 43 43 48 51 53
12 12 15 10 14 14 17 20 24 29 33 32 35 35 32 33 39 37 30 32 33 36 39 42 43 46 47 49 48 49 51 52 53 52 53 55 58 60
16 16 16 15 10 5 5 5 5 9 15 15 18 27 23 29 32 37 39 41 44 45 48 52 52 54 56 57 57 58 58 58 60 62 63 65 66 67
18 18 17 16 15 13 16 17 19 21 23 27 31 33 35 37 40 42 45 48 50 51 53 57 57 61 63 65 65 65 65 64 65 66 66 68 69 69
24 24 24 24 23 24 25 26 28 30 32 34 37 39 41 43 45 47 50 53 55 56 57 59 62 64 68 69 70 72 72 72 72 72 72 73 73 73
29 29 30 30 30 31 32 32 34 35 37 39 41 44 45 46 48 51 54 56 59 61 62 65 69 71 74 78 79 81 81 81 81 81 81 82 82 82
30 31 32 33 34 35 35 36 38 39 40 42 43 45 47 50 54 59 61 63 64 66 68 70 75 77 78 81 84 86 87 88 88 88 88 89 89 89
34 35 37 37 37 38 38 39 40 42 44 46 49 51 53 56 59 59 60 65 68 72 74 77 80 83 85 84 73 76 79 80 81 81 82 83 84 85
38 39 41 41 42 44 45 45 47 49 51 52 53 52 52 54 58 61 63 67 71 75 76 73 65 56 50 48 47 48 49 50 52 52 53 55 55 55
44 45 44 44 41 41 41 43 46 45 44 45 48 51 53 55 58 63 66 66 62 54 48 46 48 50 49 48 45 47 45 48 46 45 44 43 41 42
47 45 46 45 43 41 41 42 42 43 46 48 48 50 53 57 61 61 53 46 44 48 50 49 49 47 45 45 42 41 41 40 40 39 38 37 35 34
56 47 44 42 43 41 40 40 43 47 47 47 49 51 55 57 55 49 44 43 44 46 47 46 44 44 44 41 39 37 35 33 30 29 29 28 25 25
49 42 41 41 40 40 41 44 45 46 47 47 49 51 53 51 46 43 43 43 42 41 42 42 42 41 41 39 32 29 29 27 25 22 20 21 18 15
42 43 40 39 39 41 44 46 47 47 46 46 47 48 46 43 41 41 41 41 40 40 40 38 38 38 37 36 34 28 25 21 19 16 15 14 10 7
42 40 38 38 41 43 45 46 46 47 45 44 44 43 37 37 38 38 37 37 38 38 39 38 37 36 34 31 29 23 19 16 14 13 10 6 6 8
39 38 36 39 43 43 45 45 45 45 42 41 41 38 34 35 36 37 37 37 38 38 39 38 37 35 33 29 24 21 15 12 10 8 6 9 10 9
38 37 38 40 43 43 44 44 43 41 40 38 38 34 35 36 36 36 36 37 38 39 39 38 36 33 29 26 21 16 12 9 7 7 11 11 10 11
36 38 40 42 43 44 43 43 41 40 37 35 35 34 33 35 35 36 36 37 37 38 38 38 33 27 24 20 14 9 8 7 8 8 12 10 13 14
Wind_Direction
248 254 254 251 249 252 254 254 251 258 258 261 257 260 263 260 275 289 292 294 290 285 283 281 279 278 275 273 276 276 276 270 275 276 276 270 259 254
257 257 256 255 255 255 254 253 254 251 256 270 263 263 280 285 291 287 286 284 280 278 280 279 278 273 278 272 274 276 271 274 275 272 267 261 246 254
268 260 260 263 262 261 258 254 257 258 256 260 271 278 281 283 280 275 275 277 278 279 277 275 276 278 270 276 271 266 269 272 270 269 262 255 264 267
287 279 271 264 262 259 259 258 259 263 264 266 271 274 278 281 278 277 282 278 278 275 271 265 270 275 271 276 271 262 266 266 263 255 255 266 271 268
296 286 280 273 269 266 262 257 256 259 264 267 270 273 277 279 283 285 282 284 283 277 271 265 270 266 271 269 267 263 260 263 255 255 258 266 271 270
322 309 297 290 281 269 263 257 254 256 260 264 268 269 270 270 272 277 269 269 269 271 273 274 275 276 277 277 272 272 274 275 277 275 271 268 270 271
39 33 20 314 281 276 271 268 264 261 259 262 269 263 262 265 254 264 272 276 278 280 279 278 279 278 277 276 276 273 272 271 270 268 267 265 267 270
342 343 346 343 355 353 329 265 245 254 250 258 266 263 269 269 273 278 278 279 280 282 284 283 282 280 280 279 277 275 273 270 268 267 269 269 269 268
322 319 315 312 308 292 284 283 278 279 274 275 275 276 275 275 277 278 280 281 281 281 281 282 283 284 283 282 280 279 277 275 273 271 270 270 269 269
311 309 306 303 298 293 290 287 285 284 283 281 280 281 282 283 285 286 286 286 286 286 285 287 286 285 284 283 281 280 278 277 275 274 273 273 273 272
306 304 301 298 295 293 291 290 290 289 288 288 289 290 291 290 291 291 291 290 291 291 288 286 286 285 285 284 282 280 279 277 275 274 273 273 273 274
304 303 302 300 298 296 295 293 292 291 290 290 289 288 289 290 291 290 290 289 287 287 285 284 284 281 278 281 281 279 277 276 275 274 273 273 273 273
311 310 307 304 301 299 297 295 294 294 294 293 292 292 292 291 291 292 293 294 292 292 292 290 289 288 286 282 283 281 278 277 276 276 275 274 274 274
307 308 308 306 301 297 295 294 295 294 295 294 294 294 295 296 298 298 297 297 296 295 295 295 296 298 299 298 295 290 289 286 283 281 280 277 276 276
301 303 304 306 303 299 297 296 296 297 298 299 300 299 300 303 303 302 301 301 302 304 307 309 308 304 302 300 297 293 291 289 288 285 283 281 279 278
302 291 295 300 301 299 299 300 300 301 301 303 305 307 307 306 305 304 305 308 308 308 308 307 306 305 302 300 298 295 293 290 288 286 284 283 280 278
303 293 293 301 301 301 301 301 303 304 306 309 308 308 309 308 308 308 308 306 305 307 308 309 309 307 304 302 301 299 296 293 290 286 286 284 282 280
299 293 296 297 299 301 301 303 304 305 306 308 310 311 311 309 307 307 309 308 307 308 308 308 310 309 309 308 305 302 299 296 295 289 284 284 286 281
292 292 293 295 298 300 302 304 305 305 306 310 312 312 309 307 308 308 309 310 310 310 310 313 315 314 311 308 306 307 303 301 297 292 287 281 278 256
289 291 293 297 299 302 304 304 305 305 308 310 310 308 307 308 310 312 312 312 312 314 314 317 317 315 312 307 304 304 299 296 291 285 285 253 210 197
290 292 297 299 300 302 303 303 303 304 308 309 308 306 304 306 312 315 314 313 313 314 315 317 318 318 315 309 305 303 302 295 285 270 216 186 185 178
289 296 297 298 299 299 299 300 301 304 307 306 303 302 302 304 311 315 315 314 315 317 316 318 317 316 312 306 302 300 295 282 265 218 187 175 174 159
293 294 295 296 297 296 297 298 300 303 302 300 298 298 299 304 307 311 316 316 317 319 319 317 313 312 309 302 302 298 284 250 209 196 184 177 169 151